Flag for Germany Weather past 2 weeks in Coburg, Bavaria, Germany

Now
36 °F

Partly sunny.


Feels Like: 31 °F
Forecast: 31 / 39 °F
Wind: 6 mph from West

Location: Bamberg

Current Time: Apr 1, 2015 at 8:22:56 AM

Latest Report: Apr 1, 2015 at 8:00 AM


Visibility: 28 mi

Pressure: 29.93 "Hg

Humidity: 82%

Dew point: 31 °F

Location of CoburgLocation

Historic Weather in Coburg — Graph

°F

Coburg temperature yesterday

Maximum temperature yesterday: 55 °F (at 11:00 AM)
Minimum temperature yesterday: 32 °F (at 12:00 AM)
Average temperature yesterday: 46 °F

Past Weeks' High & Low Weather Summary

 TemperatureHumidityPressure
High67 °F (Mar 25, 3:00 PM)95% (Mar 24, 7:00 AM)30.33 "Hg (Mar 24, 7:00 AM)
Low23 °F (Mar 21, 5:00 AM)19% (Mar 20, 4:00 PM)29.35 "Hg (Mar 31, 9:00 AM)
Average44 °F69%29.97 "Hg
* Reported Mar 17 6:00 AM — Apr 1 7:00 AM, Coburg, Weather by CustomWeather, © 2015

Note: Actual official high and low records may vary slightly from our data, if they occured in-between our weather recording intervals... More about our weather records

Advertising

Coburg weather history for previous 24 hours

 ConditionsComfort  
Time TempWeatherWind HumidityBarometerVisibility
7:00 AM
Wed, Apr 1
36 °FScattered clouds.7 mph80%29.91 "Hg40 mi
6:00 AM36 °FPassing clouds.10 mph83%29.89 "Hg17 mi
5:00 AM38 °FClear.7 mph72%29.86 "Hg37 mi
4:00 AM40 °FOvercast.8 mph71%29.85 "Hg43 mi
3:00 AM40 °FOvercast.9 mph75%29.83 "Hg37 mi
2:00 AM39 °FDrizzle. Overcast.7 mph81%29.83 "Hg31 mi
1:00 AM39 °FDrizzle. Overcast.5 mph83%29.82 "Hg31 mi
12:00 AM40 °FOvercast.8 mph79%29.79 "Hg43 mi
11:00 PM
Tue, Mar 31
44 °FOvercast.5 mph71%29.77 "Hg43 mi
10:00 PM46 °FClear.10 mph48%29.77 "Hg43 mi
9:00 PM47 °FClear.6 mph45%29.75 "Hg43 mi
8:00 PM48 °FPassing clouds.9 mph47%29.71 "Hg43 mi
7:00 PM49 °FScattered clouds.12 mph52%29.67 "Hg25 mi
6:00 PM50 °FScattered clouds.9 mph59%29.62 "Hg28 mi
5:00 PM51 °FPassing clouds.16 mph55%29.58 "Hg12 mi
4:00 PM49 °FOvercast.13 mph64%29.55 "Hg40 mi
3:00 PM48 °FRain. Overcast.12 mph76%29.55 "Hg6 mi
2:00 PM49 °FLight rain. Overcast.8 mph77%29.50 "Hg7 mi
1:00 PM53 °FOvercast.15 mph71%29.41 "Hg22 mi
12:00 PM54 °FLight rain. Overcast.12 mph69%29.41 "Hg28 mi
11:00 AM55 °FOvercast.12 mph73%29.38 "Hg28 mi
10:00 AM54 °FDrizzle. Overcast.12 mph75%29.38 "Hg43 mi
9:00 AM53 °FLight rain. Overcast.12 mph77%29.35 "Hg31 mi
8:00 AM51 °FLight rain. Overcast.10 mph82%29.38 "Hg43 mi
Weather by CustomWeather, © 2015

See weather overviewHow to use our weather pages